This is the latest recevied weather packets stored in our database for station/object N0NPO. If no packets are shown the sender has not sent any weather packets the latest 10 day(s).
| Time | Temp. | Humidity | Pressure | Rain* | Wind** | Luminosity | Snow |
|---|---|---|---|---|---|---|---|
| 1778156225 | 1.11° C | 1% | 1014.2 hPa | 0 mm | - | 32 W/m² | - |
| 1778155921 | 1.67° C | 1% | 1014.1 hPa | 0 mm | - | 29 W/m² | - |
| 1778155617 | 1.11° C | 1% | 1014.2 hPa | 0 mm | - | 26 W/m² | - |
| 1778155315 | 1.11° C | 1% | 1013.9 hPa | 0 mm | - | 23 W/m² | - |
| 1778155011 | 0.56° C | 1% | 1013.9 hPa | 0 mm | - | 20 W/m² | - |
| 1778154706 | 0.56° C | 1% | 1013.8 hPa | 0 mm | - | 16 W/m² | - |
| 1778154403 | 0° C | 1% | 1013.8 hPa | 0 mm | - | 12 W/m² | - |
| 1778154100 | -0.56° C | 1% | 1013.8 hPa | 0 mm | - | 9 W/m² | - |
| 1778153797 | -0.56° C | 1% | 1013.7 hPa | 0 mm | - | 6 W/m² | - |
| 1778153494 | -0.56° C | 1% | 1013.5 hPa | 0 mm | - | 2 W/m² | - |
| 1778153192 | 0° C | 1% | 1013.7 hPa | 0 mm | - | 1 W/m² | - |
| 1778152888 | 0° C | 1% | 1013.8 hPa | 0 mm | - | 0 W/m² | - |
| 1778152586 | 0° C | 1% | 1013.7 hPa | 0 mm | - | 0 W/m² | - |
| 1778152282 | 0.56° C | 1% | 1013.8 hPa | 0 mm | - | 0 W/m² | - |
| 1778151978 | 0.56° C | 1% | 1013.7 hPa | 0 mm | - | 0 W/m² | - |
| 1778151675 | 0.56° C | 1% | 1013.8 hPa | 0 mm | - | 0 W/m² | - |
| 1778151372 | 0.56° C | 1% | 1013.8 hPa | 0 mm | - | 0 W/m² | - |
| 1778151068 | 1.11° C | 1% | 1013.6 hPa | 0 mm | - | 0 W/m² | - |
| 1778150766 | 1.11° C | 1% | 1013.7 hPa | 0 mm | - | 0 W/m² | - |
| 1778150462 | 1.67° C | 1% | 1013.8 hPa | 0 mm | - | 0 W/m² | - |
| 1778150158 | 1.67° C | 1% | 1013.8 hPa | 0 mm | - | 0 W/m² | - |
| 1778149855 | 1.67° C | 1% | 1013.7 hPa | 0 mm | - | 0 W/m² | - |
| 1778149551 | 1.67° C | 1% | 1013.8 hPa | 0 mm | - | 0 W/m² | - |
| 1778149247 | 1.67° C | 1% | 1013.7 hPa | 0 mm | - | 0 W/m² | - |
| 1778148943 | 1.67° C | 1% | 1013.7 hPa | 0 mm | - | 0 W/m² | - |
* Rain latest hour (hover to see other rain measurements)
** Current wind speed in m/s (hover to see current wind gust speed)